Location: Newark
(51.8900°N, 2.0780°W)
Time: 14:24:27
(UTC+00:00)

Envisat - Pass Details

Date: 22 November 2019
Orbit: 764 x 766 km, 98.1° (Epoch: 07 December)

Event Time Altitude Azimuth Distance (km) Brightness Sun altitude
Rises 17:06:32 0° 141° (SE) 3,224 6.0 -8.7°
Reaches altitude 10° 17:08:55 10° 134° (SE) 2,302 5.2 -9.0°
Maximum altitude 17:13:39 41° 65° (ENE) 1,110 3.4 -9.7°
Drops below altitude 10° 17:18:24 10° 357° (N) 2,316 5.3 -10.4°
Sets 17:20:49 0° 350° (N) 3,246 6.1 -10.8°
